TimeEDT,TemperatureF,Dew PointF,Humidity,Sea Level PressureIn,VisibilityMPH,Wind Direction,Wind SpeedMPH,Gust SpeedMPH,PrecipitationIn,Events,Conditions,WindDirDegrees,DateUTC
12:15 AM,60.8,51.8,72,29.93,10.0,SSE,5.8,-,N/A,,Mostly Cloudy,150,2013-03-12 04:15:00
12:35 AM,60.8,51.8,72,29.90,10.0,SE,5.8,-,N/A,,Mostly Cloudy,130,2013-03-12 04:35:00
12:55 AM,60.8,51.8,72,29.90,10.0,SE,8.1,-,N/A,,Overcast,140,2013-03-12 04:55:00
1:55 AM,59.0,51.8,77,29.89,10.0,SSE,9.2,-,N/A,,Overcast,160,2013-03-12 05:55:00
2:35 AM,59.0,53.6,82,29.88,10.0,SSE,9.2,-,N/A,,Overcast,150,2013-03-12 06:35:00
2:55 AM,57.2,53.6,88,29.87,10.0,SSE,4.6,-,N/A,,Overcast,160,2013-03-12 06:55:00
3:15 AM,57.2,53.6,88,29.86,10.0,SSE,4.6,-,0.01,,Overcast,150,2013-03-12 07:15:00
3:35 AM,57.2,53.6,88,29.85,10.0,SSE,5.8,-,0.01,,Overcast,160,2013-03-12 07:35:00
3:55 AM,57.2,53.6,88,29.84,10.0,SSE,4.6,-,0.02,,Overcast,160,2013-03-12 07:55:00
4:15 AM,57.2,53.6,88,29.83,10.0,South,6.9,-,0.01,,Overcast,170,2013-03-12 08:15:00
4:35 AM,59.0,55.4,88,29.82,10.0,South,9.2,17.3,0.03,,Overcast,180,2013-03-12 08:35:00
4:55 AM,60.8,55.4,82,29.81,10.0,South,11.5,21.9,0.04,,Overcast,180,2013-03-12 08:55:00
5:15 AM,60.8,57.2,88,29.81,10.0,South,16.1,25.3,0.01,,Overcast,190,2013-03-12 09:15:00
5:35 AM,60.8,57.2,88,29.81,10.0,South,10.4,21.9,0.02,,Overcast,190,2013-03-12 09:35:00
5:55 AM,60.8,55.4,82,29.81,10.0,South,16.1,20.7,0.05,,Overcast,190,2013-03-12 09:55:00
6:15 AM,60.8,57.2,88,29.81,10.0,SSW,16.1,23.0,0.04,,Overcast,200,2013-03-12 10:15:00
6:55 AM,60.8,57.2,88,29.80,10.0,SSW,16.1,23.0,0.07,,Overcast,210,2013-03-12 10:55:00
7:15 AM,60.8,55.4,82,29.80,10.0,SSW,15.0,24.2,N/A,,Overcast,210,2013-03-12 11:15:00
7:35 AM,60.8,55.4,82,29.80,10.0,SSW,16.1,24.2,N/A,,Overcast,210,2013-03-12 11:35:00
7:55 AM,60.8,57.2,88,29.80,10.0,SSW,17.3,23.0,N/A,,Overcast,210,2013-03-12 11:55:00
8:35 AM,60.8,57.2,88,29.82,10.0,SW,18.4,24.2,0.02,,Overcast,220,2013-03-12 12:35:00
9:15 AM,60.8,57.2,88,29.82,10.0,SW,12.7,18.4,N/A,,Overcast,220,2013-03-12 13:15:00
9:35 AM,62.6,57.2,82,29.82,10.0,SW,11.5,-,N/A,,Overcast,220,2013-03-12 13:35:00
10:35 AM,62.6,57.2,82,29.83,10.0,SW,12.7,19.6,N/A,,Overcast,230,2013-03-12 14:35:00
11:15 AM,62.6,57.2,82,29.83,10.0,SW,13.8,19.6,N/A,,Overcast,230,2013-03-12 15:15:00
11:35 AM,62.6,57.2,82,29.83,10.0,SW,10.4,-,N/A,,Overcast,230,2013-03-12 15:35:00
11:55 AM,64.4,57.2,77,29.83,10.0,WSW,10.4,-,N/A,,Overcast,240,2013-03-12 15:55:00
12:15 PM,64.4,57.2,77,29.83,10.0,WSW,10.4,16.1,N/A,,Overcast,250,2013-03-12 16:15:00
12:35 PM,64.4,57.2,77,29.83,10.0,WSW,15.0,20.7,N/A,,Overcast,240,2013-03-12 16:35:00
12:55 PM,66.2,59.0,78,29.83,10.0,WSW,10.4,17.3,N/A,,Overcast,250,2013-03-12 16:55:00
1:35 PM,69.8,57.2,64,29.81,10.0,West,8.1,-,N/A,,Mostly Cloudy,280,2013-03-12 17:35:00
1:55 PM,68.0,55.4,64,29.80,10.0,West,6.9,-,N/A,,Overcast,280,2013-03-12 17:55:00
2:15 PM,69.8,53.6,56,29.79,10.0,SW,8.1,-,N/A,,Scattered Clouds,230,2013-03-12 18:15:00
2:35 PM,71.6,53.6,53,29.78,10.0,SW,12.7,19.6,N/A,,Scattered Clouds,230,2013-03-12 18:35:00
2:55 PM,73.4,53.6,50,29.77,10.0,West,9.2,17.3,N/A,,Partly Cloudy,270,2013-03-12 18:55:00
3:15 PM,-9999,-9999,N/A,29.76,10.0,WNW,8.1,19.6,N/A,,Scattered Clouds,300,2013-03-12 19:15:00
3:35 PM,73.4,51.8,47,29.76,10.0,WNW,8.1,-,N/A,,Overcast,290,2013-03-12 19:35:00
3:55 PM,73.4,51.8,47,29.77,10.0,West,11.5,-,N/A,,Mostly Cloudy,260,2013-03-12 19:55:00
4:15 PM,73.4,50.0,44,29.77,10.0,WNW,10.4,-,N/A,,Mostly Cloudy,290,2013-03-12 20:15:00
4:35 PM,73.4,46.4,38,29.77,10.0,WNW,5.8,18.4,N/A,,Scattered Clouds,290,2013-03-12 20:35:00
4:55 PM,73.4,48.2,41,29.78,10.0,NNW,8.1,-,N/A,,Mostly Cloudy,330,2013-03-12 20:55:00
5:15 PM,71.6,46.4,41,29.78,10.0,NW,10.4,18.4,N/A,,Mostly Cloudy,310,2013-03-12 21:15:00
5:35 PM,71.6,48.2,43,29.79,10.0,NW,5.8,-,N/A,,Partly Cloudy,310,2013-03-12 21:35:00
5:55 PM,69.8,46.4,43,29.79,10.0,NNW,4.6,-,N/A,,Clear,340,2013-03-12 21:55:00
6:15 PM,69.8,46.4,43,29.80,10.0,NW,9.2,16.1,N/A,,Clear,310,2013-03-12 22:15:00
6:35 PM,68.0,46.4,46,29.81,10.0,NNW,10.4,-,N/A,,Partly Cloudy,330,2013-03-12 22:35:00
6:55 PM,66.2,46.4,49,29.82,10.0,NNW,4.6,-,N/A,,Clear,330,2013-03-12 22:55:00
7:15 PM,64.4,46.4,52,29.83,10.0,NNW,6.9,-,N/A,,Clear,330,2013-03-12 23:15:00
7:35 PM,64.4,46.4,52,29.84,10.0,NNW,4.6,-,N/A,,Clear,340,2013-03-12 23:35:00
7:55 PM,62.6,44.6,52,29.85,10.0,NNW,3.5,-,N/A,,Clear,340,2013-03-12 23:55:00
8:15 PM,60.8,44.6,55,29.86,10.0,Calm,Calm,-,N/A,,Clear,0,2013-03-13 00:15:00
8:35 PM,60.8,42.8,52,29.88,10.0,NNW,6.9,-,N/A,,Clear,340,2013-03-13 00:35:00
8:55 PM,60.8,39.2,45,29.89,10.0,NNW,5.8,-,N/A,,Clear,340,2013-03-13 00:55:00
9:15 PM,59.0,37.4,45,29.90,10.0,North,6.9,-,N/A,,Clear,350,2013-03-13 01:15:00
9:35 PM,57.2,33.8,41,29.91,10.0,North,3.5,-,N/A,,Clear,350,2013-03-13 01:35:00
10:15 PM,55.4,30.2,38,29.93,10.0,North,5.8,-,N/A,,Clear,350,2013-03-13 02:15:00
10:35 PM,53.6,28.4,38,29.93,10.0,North,3.5,-,N/A,,Clear,360,2013-03-13 02:35:00
10:55 PM,53.6,28.4,38,29.94,10.0,North,3.5,-,N/A,,Clear,360,2013-03-13 02:55:00
11:15 PM,51.8,28.4,41,29.95,10.0,North,5.8,-,N/A,,Clear,360,2013-03-13 03:15:00
11:35 PM,51.8,30.2,44,29.95,10.0,North,5.8,-,N/A,,Clear,360,2013-03-13 03:35:00
11:55 PM,51.8,30.2,44,29.95,10.0,North,8.1,-,N/A,,Clear,360,2013-03-13 03:55:00